Total_Precipitation_Accumulation
0.00 0.00 0.00 0.00 0.00 0.00 0.00 0.00 0.00 0.00 0.00 0.00 0.00 0.00 0.00 0.00 0.00 0.00 0.00 0.00 0.00 0.00 0.00 0.00 0.00 0.00 0.00 0.00 0.00 0.00 0.01 0.06 0.03 0.13 0.26 0.04 0.10 0.10 0.03 0.16 0.14 0.19 0.20 0.11 0.04 0.04 0.03 0.02 0.01 0.01 0.00 0.01 0.00 0.00 0.00 0.00 0.00 0.00 0.00 0.00 0.01 0.00 0.00 0.01 0.00 0.00 0.01 0.01 0.01 0.00 0.00 0.00 0.01 0.01 0.02 0.02 0.05 0.02 0.01 0.04 0.04 0.06 0.10 0.07 0.06 0.05 0.03 0.04 0.04 0.04 0.05 0.04 0.05 0.11 0.13 0.08 0.05
0.00 0.00 0.00 0.00 0.00 0.00 0.00 0.00 0.00 0.00 0.00 0.00 0.00 0.00 0.00 0.00 0.00 0.00 0.00 0.00 0.00 0.00 0.00 0.00 0.00 0.00 0.00 0.00 0.00 0.00 0.00 0.02 0.01 0.02 0.18 0.14 0.08 0.05 0.20 0.42 0.68 0.51 0.24 0.15 0.09 0.04 0.03 0.04 0.02 0.01 0.01 0.01 0.01 0.00 0.00 0.00 0.00 0.00 0.01 0.01 0.00 0.00 0.00 0.00 0.01 0.00 0.00 0.00 0.00 0.00 0.01 0.01 0.02 0.02 0.03 0.04 0.03 0.03 0.01 0.05 0.05 0.05 0.06 0.05 0.04 0.03 0.03 0.04 0.03 0.03 0.04 0.04 0.05 0.06 0.04 0.05 0.05
0.00 0.00 0.00 0.00 0.00 0.00 0.00 0.00 0.00 0.00 0.00 0.00 0.00 0.00 0.00 0.00 0.00 0.00 0.00 0.00 0.00 0.00 0.00 0.00 0.00 0.00 0.00 0.00 0.00 0.03 0.53 0.04 0.02 0.05 0.12 0.15 0.09 0.34 0.21 0.35 0.66 0.64 0.54 0.20 0.13 0.03 0.04 0.04 0.01 0.02 0.02 0.01 0.01 0.01 0.01 0.00 0.00 0.00 0.02 0.01 0.01 0.01 0.01 0.00 0.00 0.00 0.00 0.00 0.00 0.01 0.01 0.02 0.03 0.06 0.04 0.03 0.02 0.02 0.02 0.03 0.06 0.06 0.03 0.04 0.02 0.03 0.04 0.06 0.04 0.03 0.03 0.04 0.02 0.04 0.03 0.03 0.03
0.00 0.00 0.00 0.00 0.00 0.00 0.00 0.00 0.00 0.00 0.00 0.00 0.00 0.00 0.00 0.00 0.00 0.00 0.00 0.00 0.00 0.00 0.00 0.00 0.01 0.00 0.00 0.00 0.03 0.00 0.03 0.05 0.03 0.02 0.12 0.12 0.14 0.15 0.27 0.61 0.77 0.30 0.17 0.14 0.18 0.05 0.03 0.05 0.01 0.02 0.02 0.02 0.01 0.02 0.02 0.01 0.01 0.00 0.01 0.01 0.00 0.00 0.00 0.00 0.00 0.00 0.00 0.00 0.00 0.02 0.02 0.05 0.04 0.04 0.07 0.06 0.03 0.02 0.03 0.02 0.03 0.05 0.02 0.02 0.04 0.04 0.04 0.05 0.05 0.04 0.02 0.02 0.01 0.02 0.03 0.03 0.03
0.00 0.00 0.00 0.00 0.00 0.00 0.00 0.00 0.00 0.00 0.00 0.00 0.00 0.00 0.00 0.00 0.00 0.00 0.00 0.00 0.00 0.00 0.00 0.00 0.01 0.00 0.00 0.01 0.00 0.03 0.07 0.02 0.04 0.04 0.05 0.07 0.13 0.22 0.26 0.43 0.45 0.18 0.19 0.16 0.12 0.05 0.08 0.06 0.03 0.01 0.01 0.03 0.02 0.02 0.02 0.02 0.02 0.01 0.01 0.01 0.01 0.00 0.00 0.00 0.00 0.00 0.00 0.00 0.02 0.03 0.03 0.05 0.06 0.09 0.07 0.07 0.04 0.02 0.00 0.02 0.01 0.03 0.01 0.01 0.01 0.00 0.01 0.01 0.01 0.01 0.01 0.02 0.02 0.02 0.03 0.01 0.02
0.00 0.00 0.00 0.00 0.00 0.00 0.00 0.00 0.00 0.00 0.00 0.00 0.00 0.00 0.00 0.00 0.00 0.00 0.00 0.00 0.00 0.00 0.00 0.00 0.01 0.01 0.01 0.14 0.05 0.07 0.09 0.15 0.04 0.05 0.05 0.16 0.38 0.38 0.34 0.49 0.42 0.13 0.17 0.18 0.12 0.06 0.09 0.02 0.02 0.01 0.01 0.02 0.02 0.02 0.02 0.03 0.01 0.02 0.01 0.02 0.00 0.00 0.00 0.00 0.00 0.00 0.00 0.01 0.03 0.05 0.06 0.07 0.06 0.11 0.07 0.06 0.02 0.02 0.01 0.03 0.02 0.02 0.03 0.03 0.01 0.01 0.01 0.01 0.02 0.01 0.01 0.00 0.02 0.02 0.01 0.00 0.00
0.00 0.00 0.00 0.00 0.00 0.00 0.00 0.00 0.00 0.00 0.00 0.00 0.00 0.00 0.00 0.00 0.00 0.00 0.00 0.00 0.00 0.00 0.00 0.00 0.00 0.00 0.05 0.01 0.00 0.06 0.08 0.02 0.06 0.03 0.07 0.12 0.33 0.63 0.79 0.89 0.44 0.15 0.18 0.12 0.14 0.10 0.09 0.02 0.02 0.01 0.01 0.02 0.03 0.03 0.03 0.02 0.03 0.03 0.02 0.02 0.01 0.00 0.01 0.00 0.00 0.01 0.01 0.02 0.04 0.04 0.05 0.07 0.06 0.08 0.10 0.09 0.04 0.12 0.03 0.02 0.03 0.09 0.07 0.02 0.02 0.02 0.02 0.02 0.02 0.02 0.01 0.02 0.01 0.00 0.00 0.00 0.00
0.00 0.00 0.00 0.00 0.00 0.00 0.00 0.00 0.00 0.00 0.00 0.00 0.00 0.00 0.00 0.00 0.00 0.00 0.00 0.00 0.00 0.00 0.00 0.00 0.00 0.00 0.52 0.03 0.24 0.04 0.03 0.02 0.04 0.01 0.04 0.22 0.48 0.39 0.67 1.12 0.84 0.19 0.17 0.16 0.11 0.07 0.31 0.08 0.09 0.10 0.02 0.01 0.04 0.04 0.03 0.03 0.02 0.03 0.02 0.02 0.01 0.01 0.01 0.00 0.00 0.01 0.02 0.04 0.03 0.06 0.07 0.05 0.06 0.08 0.08 0.08 0.08 0.04 0.08 0.02 0.05 0.07 0.06 0.05 0.02 0.02 0.01 0.02 0.01 0.00 0.01 0.01 0.03 0.01 0.00 0.00 0.00
0.00 0.00 0.00 0.00 0.00 0.00 0.00 0.00 0.00 0.00 0.00 0.00 0.00 0.00 0.00 0.00 0.00 0.00 0.00 0.00 0.00 0.00 0.00 0.00 0.00 0.13 0.05 0.07 0.11 0.06 0.08 0.05 0.03 0.02 0.05 0.20 0.22 0.35 0.84 0.71 0.30 0.16 0.23 0.26 0.24 0.21 0.17 0.13 0.29 0.24 0.13 0.15 0.48 0.05 0.03 0.03 0.03 0.04 0.03 0.01 0.01 0.00 0.01 0.01 0.01 0.01 0.04 0.05 0.04 0.07 0.17 0.08 0.04 0.06 0.05 0.10 0.03 0.05 0.13 0.06 0.03 0.06 0.02 0.02 0.02 0.02 0.01 0.01 0.01 0.01 0.01 0.01 0.02 0.00 0.00 0.00 0.00
0.00 0.00 0.00 0.00 0.00 0.00 0.00 0.00 0.00 0.00 0.00 0.00 0.00 0.00 0.00 0.00 0.00 0.00 0.00 0.00 0.00 0.00 0.00 0.00 0.00 0.02 0.04 0.23 0.16 0.14 0.17 0.12 0.03 0.05 0.14 0.15 0.43 0.60 0.32 0.35 0.19 0.18 0.25 0.29 0.34 0.31 0.19 0.35 0.24 0.41 0.27 0.23 0.17 0.04 0.05 0.02 0.01 0.01 0.02 0.00 0.00 0.00 0.01 0.01 0.01 0.01 0.05 0.08 0.04 0.05 0.08 0.12 0.05 0.05 0.03 0.06 0.04 0.05 0.08 0.07 0.03 0.08 0.05 0.03 0.03 0.02 0.02 0.06 0.02 0.03 0.02 0.01 0.01 0.01 0.00 0.00 0.00
0.00 0.00 0.00 0.00 0.00 0.00 0.00 0.00 0.00 0.00 0.00 0.00 0.00 0.00 0.00 0.00 0.00 0.00 0.00 0.00 0.00 0.00 0.00 0.00 0.00 0.02 0.01 0.22 0.40 0.18 0.05 0.09 0.05 0.09 0.13 0.33 0.52 0.20 0.25 0.23 0.18 0.21 0.53 0.65 0.38 0.29 0.33 0.38 0.36 0.40 0.29 0.21 0.06 0.05 0.04 0.02 0.03 0.01 0.01 0.00 0.00 0.00 0.01 0.00 0.01 0.02 0.04 0.05 0.06 0.04 0.05 0.06 0.04 0.06 0.03 0.08 0.03 0.04 0.07 0.07 0.03 0.07 0.04 0.02 0.02 0.01 0.01 0.02 0.04 0.03 0.01 0.00 0.00 0.00 0.00 0.00 0.00
0.00 0.00 0.00 0.00 0.00 0.00 0.00 0.00 0.00 0.00 0.00 0.00 0.00 0.00 0.00 0.00 0.00 0.00 0.00 0.00 0.00 0.00 0.01 0.00 0.01 0.00 0.09 0.15 0.36 0.38 0.15 0.10 0.09 0.11 0.25 0.41 0.48 0.36 0.24 0.31 0.59 0.30 0.27 0.28 0.29 0.34 0.29 0.34 0.38 0.54 0.42 0.67 0.08 0.05 0.05 0.04 0.02 0.01 0.01 0.02 0.00 0.01 0.00 0.00 0.01 0.02 0.03 0.06 0.04 0.03 0.02 0.05 0.03 0.05 0.06 0.07 0.03 0.03 0.08 0.07 0.10 0.08 0.05 0.04 0.01 0.01 0.01 0.00 0.00 0.02 0.03 0.00 0.00 0.00 0.00 0.00 0.00
0.00 0.00 0.00 0.00 0.00 0.00 0.00 0.00 0.00 0.00 0.00 0.00 0.00 0.00 0.00 0.00 0.00 0.00 0.00 0.00 0.00 0.00 0.00 0.00 0.00 0.00 0.41 0.33 0.34 0.34 0.16 0.19 0.10 0.25 0.33 0.33 0.50 0.60 0.35 0.46 0.36 0.33 0.56 0.61 0.39 0.39 0.50 0.31 0.43 0.49 0.66 0.55 0.44 0.14 0.08 0.08 0.06 0.06 0.03 0.04 0.05 0.03 0.03 0.02 0.02 0.03 0.05 0.08 0.03 0.01 0.02 0.02 0.02 0.07 0.05 0.03 0.02 0.07 0.08 0.07 0.10 0.04 0.03 0.02 0.01 0.01 0.00 0.01 0.01 0.01 0.04 0.08 0.00 0.00 0.00 0.00 0.00
0.00 0.00 0.00 0.00 0.00 0.00 0.00 0.00 0.00 0.00 0.00 0.00 0.00 0.00 0.00 0.00 0.00 0.00 0.00 0.00 0.00 0.00 0.00 0.00 0.00 0.04 0.39 0.20 0.53 0.26 0.25 0.18 0.12 0.40 0.39 0.31 0.39 0.62 1.13 0.70 0.62 1.17 0.59 0.66 0.50 0.65 0.46 0.29 0.29 0.36 0.59 0.67 0.68 0.64 0.21 0.11 0.06 0.04 0.03 0.04 0.00 0.01 0.02 0.03 0.02 0.03 0.09 0.04 0.04 0.03 0.01 0.02 0.04 0.05 0.02 0.02 0.03 0.03 0.04 0.04 0.04 0.03 0.06 0.02 0.01 0.00 0.00 0.00 0.01 0.02 0.02 0.04 0.00 0.00 0.00 0.00 0.00
0.00 0.00 0.00 0.00 0.00 0.00 0.00 0.00 0.00 0.00 0.00 0.00 0.00 0.00 0.00 0.00 0.00 0.00 0.00 0.00 0.00 0.00 0.00 0.00 0.00 0.05 2.03 0.17 0.44 0.16 0.15 0.17 0.15 0.33 0.84 0.58 0.45 0.48 0.73 0.79 1.48 0.64 0.55 0.60 0.55 0.42 0.35 0.38 0.43 0.48 0.69 0.73 1.32 1.32 0.93 0.49 0.10 0.10 0.03 0.07 0.02 0.03 0.06 0.06 0.05 0.02 0.07 0.15 0.04 0.07 0.03 0.08 0.10 0.08 0.04 0.02 0.02 0.05 0.04 0.02 0.03 0.03 0.02 0.01 0.00 0.01 0.00 0.00 0.00 0.00 0.00 0.01 0.00 0.00 0.00 0.00 0.00
0.00 0.00 0.00 0.00 0.00 0.00 0.00 0.00 0.00 0.00 0.00 0.00 0.00 0.00 0.00 0.00 0.00 0.00 0.00 0.00 0.00 0.00 0.00 0.07 0.00 0.08 0.11 0.02 0.19 0.09 0.08 0.19 0.19 0.61 0.93 1.56 1.12 0.89 0.82 1.07 0.69 0.46 0.58 1.09 0.69 0.54 0.47 0.54 0.64 0.79 0.66 0.84 1.28 1.03 1.11 1.25 0.79 0.57 0.28 0.05 0.12 0.07 0.13 0.09 0.07 0.05 0.11 0.10 0.15 0.15 0.21 0.30 0.35 0.27 0.17 0.13 0.08 0.04 0.01 0.08 0.02 0.01 0.01 0.00 0.01 0.01 0.00 0.00 0.00 0.00 0.00 0.00 0.00 0.00 0.00 0.00 0.00
0.00 0.00 0.00 0.00 0.00 0.00 0.00 0.00 0.00 0.00 0.00 0.00 0.00 0.00 0.00 0.00 0.00 0.00 0.00 0.00 0.00 0.00 0.00 0.01 0.05 0.00 0.11 0.04 0.09 0.02 0.08 0.09 0.22 0.62 1.10 1.78 1.24 1.03 0.91 0.91 0.78 0.81 0.63 0.44 0.52 0.52 0.56 0.92 1.08 1.20 1.31 1.88 0.73 0.95 1.19 0.81 0.57 0.91 0.77 0.43 0.19 0.10 0.11 0.10 0.10 0.11 0.29 0.21 0.20 0.17 0.19 0.35 0.40 0.33 0.14 0.21 0.10 0.18 0.02 0.02 0.01 0.00 0.00 0.00 0.01 0.01 0.00 0.00 0.01 0.00 0.00 0.00 0.00 0.00 0.00 0.00 0.00
0.00 0.00 0.00 0.00 0.00 0.00 0.00 0.00 0.00 0.00 0.00 0.00 0.00 0.00 0.00 0.00 0.00 0.00 0.00 0.00 0.00 0.01 0.00 0.01 0.01 0.10 0.08 0.08 0.16 0.08 0.08 0.12 0.24 0.53 0.82 1.32 1.26 1.21 1.69 1.05 0.84 0.86 1.11 0.96 0.79 0.54 0.76 1.28 2.17 0.99 1.71 0.98 0.94 0.99 0.93 0.45 1.05 0.79 0.90 0.46 0.65 0.48 0.40 0.29 0.18 0.25 0.46 0.52 0.36 0.21 0.43 0.72 0.57 0.30 0.30 0.54 0.20 0.15 0.13 0.01 0.01 0.00 0.00 0.00 0.00 0.00 0.01 0.01 0.00 0.00 0.00 0.00 0.00 0.00 0.00 0.00 0.00
0.00 0.00 0.00 0.00 0.00 0.00 0.00 0.00 0.00 0.00 0.00 0.00 0.00 0.00 0.00 0.00 0.00 0.00 0.02 0.00 0.00 0.01 0.02 0.04 0.06 0.08 0.14 0.11 0.07 0.11 0.09 0.09 0.30 0.67 0.65 1.25 1.11 1.16 1.40 1.70 0.85 0.61 0.59 1.26 1.57 1.51 1.56 1.97 1.77 1.68 1.30 1.17 1.47 0.91 1.07 1.07 0.96 0.95 1.04 1.08 0.74 0.42 0.52 0.36 0.32 0.38 0.49 0.54 0.49 0.55 1.03 1.15 0.93 0.66 0.87 0.38 0.37 0.14 0.18 0.02 0.01 0.00 0.00 0.01 0.00 0.00 0.01 0.00 0.00 0.01 0.02 0.00 0.00 0.00 0.01 0.01 0.01
0.00 0.00 0.00 0.00 0.00 0.00 0.00 0.00 0.00 0.00 0.00 0.00 0.00 0.00 0.00 0.00 0.00 0.00 0.03 0.01 0.00 0.00 0.02 0.05 0.13 0.19 0.13 0.12 0.11 0.13 0.14 0.17 0.29 0.41 1.20 1.27 1.00 0.78 1.09 1.05 1.05 0.91 1.05 1.45 2.14 2.37 1.82 1.84 2.35 2.07 1.64 1.42 1.41 1.61 1.42 0.74 0.90 1.38 0.75 0.97 0.68 0.87 0.56 0.36 0.41 0.60 0.71 0.80 0.93 1.29 2.02 1.03 1.23 1.14 0.78 0.40 0.36 0.26 0.18 0.02 0.01 0.00 0.00 0.00 0.00 0.02 0.02 0.01 0.01 0.02 0.02 0.01 0.00 0.01 0.00 0.01 0.02
0.00 0.00 0.00 0.00 0.00 0.00 0.00 0.00 0.00 0.00 0.00 0.00 0.00 0.00 0.00 0.00 0.00 0.00 0.00 0.03 0.02 0.01 0.02 0.10 0.12 0.22 0.14 0.14 0.11 0.12 0.33 0.26 0.49 0.66 1.21 1.06 1.04 1.27 1.17 0.51 0.90 1.27 1.53 2.25 2.15 1.77 1.70 2.03 1.69 1.73 1.27 1.30 1.54 1.83 1.54 0.73 0.85 0.84 1.56 0.90 0.94 0.93 0.85 0.74 1.11 0.95 1.10 1.14 1.33 1.94 1.40 1.24 1.04 0.72 0.72 0.49 0.55 0.24 0.19 0.15 0.22 0.08 0.09 0.12 0.01 0.08 0.18 0.49 0.11 0.14 0.03 0.00 0.01 0.00 0.00 0.01 0.02
0.00 0.00 0.00 0.00 0.00 0.00 0.00 0.00 0.00 0.00 0.00 0.00 0.00 0.00 0.00 0.00 0.00 0.00 0.00 0.02 0.12 0.07 0.07 0.01 0.02 0.34 0.36 0.10 0.10 0.27 0.33 0.46 0.49 1.07 1.41 1.37 1.02 0.68 0.78 0.74 0.90 1.08 0.70 1.97 1.58 1.25 1.45 1.07 1.25 1.46 1.99 1.61 0.97 1.42 0.86 1.16 1.17 1.23 0.97 1.32 1.36 1.07 1.06 0.99 0.91 1.67 1.56 2.00 1.16 2.04 1.58 1.62 1.18 0.91 0.93 0.82 0.75 0.42 0.37 0.29 0.23 0.38 0.10 0.07 0.06 0.08 0.19 0.45 0.22 0.18 0.05 0.04 0.01 0.00 0.00 0.00 0.01
0.00 0.00 0.00 0.00 0.00 0.00 0.00 0.00 0.00 0.00 0.00 0.00 0.00 0.00 0.00 0.00 0.00 0.00 0.00 0.00 0.04 0.02 0.06 0.05 0.01 0.07 0.28 0.10 0.31 0.40 0.71 0.49 0.58 1.42 1.46 1.32 0.84 0.57 0.82 0.85 0.97 1.19 1.11 1.38 1.49 1.55 1.23 1.95 1.47 1.31 2.33 1.30 1.44 1.10 1.27 0.84 1.00 0.97 1.11 1.32 1.11 1.09 1.68 1.09 0.66 1.34 1.31 1.06 1.27 1.76 1.66 1.42 1.49 0.99 1.32 0.94 0.57 0.25 0.54 0.48 0.49 0.42 0.32 0.38 0.14 0.26 0.40 0.14 0.09 0.20 0.14 0.03 0.02 0.01 0.02 0.01 0.01
0.00 0.00 0.00 0.00 0.00 0.00 0.00 0.00 0.00 0.00 0.00 0.00 0.00 0.00 0.00 0.00 0.00 0.00 0.00 0.00 0.00 0.03 0.05 0.02 0.07 0.09 0.14 0.11 0.26 0.30 0.42 0.38 1.27 1.70 1.39 1.20 0.49 1.15 0.89 1.02 0.89 0.98 0.89 0.81 1.17 1.22 1.90 1.28 1.41 2.60 1.28 0.96 1.15 0.76 0.87 0.44 0.82 1.26 0.91 1.31 1.17 1.23 0.93 0.90 1.36 0.75 0.94 0.95 1.60 1.14 1.42 1.19 0.96 0.94 0.93 0.53 0.40 0.34 0.82 0.66 0.72 0.94 0.98 0.62 0.35 0.74 0.68 0.19 0.14 0.14 0.09 0.01 0.01 0.02 0.01 0.01 0.02
0.00 0.00 0.00 0.00 0.00 0.00 0.00 0.00 0.00 0.00 0.00 0.00 0.00 0.00 0.00 0.00 0.00 0.00 0.00 0.00 0.00 0.02 0.02 0.00 0.02 0.04 0.12 0.07 0.25 0.39 0.59 1.27 1.73 1.25 0.87 0.78 1.01 1.13 0.92 1.16 0.86 0.43 0.66 0.82 0.75 1.08 1.30 1.97 1.47 1.61 0.89 0.84 0.66 0.63 0.52 0.81 0.94 1.23 1.35 1.04 0.64 0.92 1.02 1.28 0.98 0.80 0.84 1.04 1.05 1.08 0.73 1.10 1.07 1.18 1.05 0.75 0.26 0.36 0.80 0.38 0.55 0.74 0.77 0.52 0.48 0.46 0.52 0.62 0.46 0.25 0.07 0.05 0.02 0.01 0.03 0.03 0.02
0.00 0.00 0.00 0.00 0.00 0.00 0.00 0.00 0.00 0.00 0.00 0.00 0.00 0.00 0.00 0.00 0.00 0.00 0.00 0.00 0.00 0.00 0.00 0.02 0.04 0.05 0.15 0.12 0.18 0.27 0.46 1.20 1.50 0.81 0.72 0.68 1.67 1.38 1.18 1.04 0.70 0.57 0.54 0.89 0.79 1.00 1.21 1.13 1.23 0.71 0.54 0.67 0.69 0.33 0.55 0.54 0.68 0.70 0.64 0.68 0.63 0.94 0.89 1.08 0.81 0.66 0.73 0.95 1.04 1.08 1.17 1.04 1.00 1.00 0.87 0.41 0.22 0.37 0.45 0.25 0.26 0.42 0.50 0.51 0.35 0.31 1.01 0.70 0.37 0.18 0.16 0.07 0.02 0.01 0.02 0.01 0.05
0.00 0.00 0.00 0.00 0.00 0.00 0.00 0.00 0.00 0.00 0.00 0.00 0.00 0.00 0.00 0.00 0.00 0.00 0.00 0.00 0.00 0.00 0.00 0.05 0.03 0.07 0.08 0.13 0.27 0.41 0.36 0.64 0.68 0.57 0.65 0.38 1.01 0.80 0.60 0.70 0.45 0.54 0.47 0.88 0.65 0.92 1.31 1.33 1.36 0.79 0.47 0.32 0.41 0.22 0.45 0.46 0.29 0.41 0.32 0.50 0.74 0.57 0.87 0.84 0.80 0.81 0.96 1.19 1.39 0.98 0.60 0.74 0.97 0.99 0.86 0.57 0.32 0.22 0.51 0.50 0.37 0.31 0.39 0.38 0.49 0.56 0.53 0.54 0.42 0.35 0.29 0.07 0.04 0.03 0.03 0.02 0.01
0.00 0.00 0.00 0.00 0.00 0.00 0.00 0.00 0.00 0.00 0.00 0.00 0.00 0.00 0.00 0.00 0.00 0.00 0.00 0.00 0.00 0.00 0.01 0.02 0.03 0.04 0.12 0.56 0.68 0.48 0.51 0.63 0.45 0.26 0.41 0.52 1.19 1.04 0.79 0.85 0.57 1.16 1.85 1.57 1.19 1.33 1.75 0.94 1.20 0.35 0.59 0.29 0.27 0.32 0.30 0.41 0.35 0.30 0.27 0.60 0.60 0.59 0.41 0.95 0.79 0.86 1.15 0.72 0.83 0.55 0.39 0.72 1.05 0.91 0.97 0.79 0.58 0.35 0.62 0.69 0.39 0.31 0.37 0.44 0.48 0.84 0.76 0.40 0.36 0.24 0.20 0.06 0.16 0.21 0.14 0.02 0.02
0.00 0.00 0.00 0.00 0.00 0.00 0.00 0.00 0.00 0.00 0.00 0.00 0.00 0.00 0.00 0.00 0.00 0.00 0.00 0.00 0.00 0.00 0.04 0.02 0.02 0.03 0.20 0.49 0.41 0.35 0.38 0.63 0.56 0.53 0.69 1.43 1.41 1.51 1.07 1.19 1.11 2.02 1.80 1.95 1.69 1.63 1.36 1.40 0.85 0.45 0.58 0.44 0.24 0.26 0.39 0.27 0.25 0.41 0.53 0.59 0.37 0.29 0.59 0.53 0.77 0.76 0.67 0.75 1.01 0.46 0.73 1.36 1.52 1.10 0.73 0.58 0.64 0.54 0.35 0.51 0.38 0.50 0.36 0.60 0.56 0.47 0.32 0.30 0.25 0.08 0.05 0.06 0.23 0.30 0.11 0.06 0.08
0.00 0.00 0.00 0.00 0.00 0.00 0.00 0.00 0.00 0.00 0.00 0.00 0.00 0.00 0.00 0.00 0.00 0.00 0.00 0.01 0.01 0.01 0.02 0.03 0.02 0.06 0.41 0.27 0.19 0.22 0.33 0.75 0.63 0.85 1.00 1.78 1.84 2.00 1.21 1.02 0.98 1.18 1.27 1.74 1.76 2.41 1.63 1.09 0.51 0.37 0.50 0.80 0.61 0.49 0.37 0.25 0.36 0.49 0.35 0.43 0.18 0.28 0.29 0.48 0.53 0.53 0.66 0.56 0.74 0.62 0.76 1.47 1.21 0.89 1.20 1.18 0.92 1.01 0.56 0.49 0.69 0.44 0.41 0.76 0.65 0.42 0.70 0.34 0.22 0.33 0.10 0.07 0.29 0.34 0.50 0.17 0.09
0.00 0.00 0.00 0.00 0.00 0.00 0.00 0.00 0.00 0.00 0.00 0.00 0.00 0.00 0.00 0.00 0.00 0.00 0.01 0.00 0.00 0.00 0.01 0.02 0.04 0.08 0.15 0.10 0.28 0.29 0.29 0.30 0.96 1.12 0.85 1.33 3.74 1.95 1.84 1.42 1.45 1.65 1.62 1.19 2.33 2.03 1.19 0.74 0.79 0.51 0.47 0.80 0.51 0.41 0.29 0.50 0.55 0.15 0.27 0.47 0.23 0.22 0.27 0.34 0.30 0.48 0.57 0.49 0.28 0.67 0.76 1.17 0.96 1.03 0.89 0.61 0.85 0.43 0.43 0.59 0.80 0.54 0.61 0.54 0.85 0.75 0.49 0.46 0.48 0.38 0.20 0.22 0.26 0.62 0.48 0.37 0.26
0.00 0.00 0.00 0.00 0.00 0.00 0.00 0.00 0.00 0.00 0.00 0.00 0.00 0.00 0.00 0.00 0.00 0.00 0.00 0.01 0.00 0.00 0.01 0.03 0.04 0.11 0.15 0.21 0.29 0.17 0.28 0.32 0.59 0.67 1.54 1.92 2.13 2.19 1.79 1.30 1.64 2.04 1.60 1.37 2.32 2.85 1.28 0.74 0.81 0.59 0.60 0.65 0.51 0.30 0.16 0.51 0.43 0.25 0.21 0.32 0.22 0.34 0.29 0.40 0.24 0.52 0.52 0.46 0.46 0.49 0.58 0.33 0.86 0.70 0.75 1.35 0.59 0.42 0.43 0.50 0.70 0.81 0.36 0.51 0.89 0.75 0.46 0.71 0.61 0.84 0.69 0.46 0.18 0.64 0.73 0.65 0.51
0.00 0.00 0.00 0.00 0.00 0.00 0.00 0.00 0.00 0.00 0.00 0.00 0.00 0.00 0.00 0.00 0.00 0.00 0.01 0.01 0.01 0.00 0.01 0.01 0.02 0.07 0.39 0.26 0.15 0.17 0.19 0.27 0.59 0.73 0.87 2.00 1.46 2.17 2.08 1.45 1.14 1.14 0.75 0.89 1.13 1.79 1.19 0.92 0.81 1.24 0.83 0.40 0.37 0.49 0.29 0.21 0.53 0.32 0.38 0.46 0.18 0.22 0.34 0.26 0.26 0.25 0.27 0.23 0.28 0.35 0.57 0.38 0.29 0.84 0.95 0.82 0.47 0.35 0.31 0.32 0.56 0.98 0.63 0.42 0.50 0.51 0.54 0.45 0.80 0.51 0.51 0.46 0.61 0.69 0.75 0.58 0.92
0.00 0.00 0.00 0.00 0.00 0.00 0.00 0.00 0.00 0.00 0.00 0.00 0.00 0.00 0.00 0.00 0.00 0.00 0.01 0.01 0.01 0.01 0.01 0.01 0.02 0.04 0.22 0.19 0.20 0.22 0.16 0.22 0.27 0.79 0.92 1.62 1.41 1.48 1.60 1.25 1.39 1.49 1.13 1.06 1.02 1.52 1.06 0.91 1.61 1.40 1.35 0.38 0.33 0.58 0.75 1.11 0.84 0.81 0.54 0.23 0.12 0.18 0.12 0.11 0.37 0.27 0.28 0.76 0.88 0.44 0.22 0.28 0.50 0.45 0.34 0.59 0.93 0.49 0.52 0.48 0.53 1.81 1.10 0.59 0.48 0.37 0.49 0.44 0.82 0.53 0.46 0.48 0.57 0.66 0.54 0.48 0.68
0.00 0.00 0.00 0.00 0.00 0.00 0.00 0.00 0.00 0.00 0.00 0.00 0.00 0.00 0.00 0.00 0.00 0.00 0.00 0.01 0.01 0.01 0.01 0.01 0.02 0.05 0.19 0.10 0.20 0.19 0.18 0.23 0.20 0.23 0.69 0.91 1.52 1.62 1.67 1.42 2.50 2.33 1.05 1.09 1.17 0.48 0.70 1.00 1.25 1.94 0.68 0.52 0.71 1.37 1.21 1.22 0.94 0.83 0.46 0.28 0.14 0.27 0.36 0.53 0.57 0.70 0.72 0.84 0.65 0.53 0.28 0.18 0.33 0.35 0.53 0.52 0.47 0.41 0.35 0.46 0.39 0.60 0.89 0.69 0.88 0.70 1.12 0.56 0.65 0.45 0.39 0.35 0.45 0.51 0.24 0.52 0.39
0.00 0.01 0.00 0.00 0.00 0.00 0.00 0.00 0.00 0.00 0.00 0.00 0.00 0.00 0.00 0.00 0.00 0.00 0.01 0.01 0.01 0.00 0.00 0.01 0.01 0.04 0.06 0.07 0.19 0.24 0.21 0.20 0.22 0.43 0.57 0.56 1.06 2.20 2.07 2.21 1.18 1.38 1.79 1.48 0.78 0.57 0.54 0.67 0.73 0.82 1.58 0.91 0.62 1.95 1.10 1.17 0.48 0.34 0.35 0.35 0.53 0.77 1.14 0.70 0.73 0.59 0.80 0.44 0.47 0.50 0.63 0.42 0.68 0.56 0.19 0.45 0.43 0.67 0.36 0.59 0.33 0.27 0.84 0.92 1.03 0.71 0.60 0.61 0.76 0.74 0.38 0.42 0.48 0.41 0.29 0.59 0.44
0.00 0.00 0.00 0.00 0.00 0.00 0.00 0.00 0.00 0.00 0.00 0.00 0.00 0.00 0.00 0.00 0.00 0.00 0.00 0.01 0.01 0.00 0.01 0.01 0.02 0.03 0.05 0.12 0.11 0.14 0.13 0.18 0.14 0.11 0.25 1.04 1.59 1.02 1.48 1.45 1.39 1.30 0.72 1.03 1.07 0.99 0.68 1.23 0.52 0.85 0.90 0.98 1.09 1.33 1.01 0.55 0.20 0.25 0.17 0.36 0.46 0.20 0.21 0.51 0.48 0.58 0.71 0.68 0.44 0.42 0.30 0.33 0.48 1.26 1.04 0.77 0.61 0.53 0.43 0.72 0.45 0.40 0.35 0.29 0.67 0.79 0.84 0.80 1.27 0.83 0.85 0.66 0.54 0.47 0.42 0.45 0.60
0.00 0.00 0.00 0.00 0.00 0.00 0.00 0.00 0.00 0.00 0.00 0.00 0.00 0.00 0.00 0.00 0.00 0.00 0.00 0.00 0.01 0.01 0.01 0.01 0.01 0.02 0.02 0.02 0.12 0.09 0.13 0.17 0.17 0.28 0.71 1.34 1.06 1.18 1.84 1.45 0.69 0.59 1.36 1.20 1.18 1.04 1.34 0.97 0.79 1.05 0.75 0.68 0.72 1.01 0.86 0.17 0.31 0.15 0.31 0.32 0.65 0.66 0.78 1.00 0.44 0.65 0.54 0.84 0.76 1.01 0.81 0.99 0.82 0.34 0.82 0.58 0.44 0.57 0.69 0.39 0.42 0.54 0.83 0.58 0.57 0.48 0.42 0.84 0.74 0.47 0.62 0.70 0.68 0.62 0.56 0.35 0.45
0.00 0.00 0.00 0.00 0.00 0.00 0.00 0.00 0.00 0.00 0.00 0.00 0.00 0.00 0.00 0.00 0.00 0.01 0.00 0.01 0.03 0.03 0.03 0.05 0.04 0.03 0.04 0.06 0.18 0.32 0.12 0.11 0.10 0.11 0.29 0.62 1.22 1.34 1.42 1.27 0.73 0.95 1.43 1.04 1.28 1.05 0.75 0.99 1.17 1.29 0.85 0.76 0.48 1.14 0.82 0.89 0.88 1.22 1.25 1.08 0.80 1.27 0.96 1.02 0.83 1.40 1.52 0.95 0.94 0.95 0.65 0.44 0.42 0.71 0.50 0.74 0.60 0.47 0.71 0.46 0.35 1.14 0.74 0.55 0.40 0.38 0.44 0.77 0.73 0.66 0.51 0.33 0.53 0.50 0.63 0.85 0.89
0.00 0.00 0.00 0.00 0.00 0.00 0.02 0.00 0.00 0.00 0.00 0.00 0.00 0.00 0.00 0.00 0.00 0.00 0.02 0.01 0.01 0.02 0.03 0.03 0.02 0.03 0.03 0.07 0.15 0.06 0.06 0.05 0.11 0.13 0.12 0.26 0.79 0.78 0.55 0.81 1.03 1.17 0.95 1.91 1.19 1.51 1.33 1.37 1.04 0.82 0.76 0.49 0.43 0.72 0.53 0.73 1.22 2.34 0.96 1.26 1.42 1.06 0.69 0.83 1.43 1.32 1.09 1.45 0.80 0.69 0.53 0.48 0.59 0.54 0.45 0.64 0.31 0.52 0.66 0.58 0.70 0.82 1.15 0.47 0.36 0.46 0.49 0.32 0.29 0.39 0.52 0.39 1.00 0.64 0.17 0.42 1.09
0.00 0.00 0.00 0.00 0.00 0.00 0.00 0.03 0.00 0.00 0.00 0.00 0.00 0.00 0.00 0.00 0.00 0.00 0.01 0.00 0.00 0.01 0.02 0.01 0.01 0.02 0.01 0.08 0.17 0.06 0.05 0.07 0.12 0.11 0.12 0.26 0.82 0.83 0.82 1.26 1.51 1.45 1.72 1.78 1.93 1.87 2.12 1.27 0.76 0.53 0.47 0.30 0.43 0.29 0.51 0.66 0.90 0.97 0.90 0.80 1.21 1.73 1.25 1.51 1.18 2.13 1.03 0.66 0.96 0.91 0.28 0.34 0.53 0.53 0.57 0.73 0.55 0.41 0.40 0.55 0.56 0.39 0.67 0.47 0.23 0.29 0.24 0.16 0.19 0.29 0.41 0.47 0.14 0.23 0.49 1.37 1.09
0.00 0.00 0.00 0.00 0.00 0.00 0.00 0.00 0.00 0.00 0.01 0.00 0.00 0.00 0.02 0.01 0.00 0.01 0.01 0.01 0.02 0.03 0.01 0.02 0.01 0.00 0.01 0.05 0.04 0.06 0.06 0.09 0.11 0.09 0.10 0.34 0.57 0.69 1.33 1.93 1.68 1.72 1.63 1.83 1.98 2.33 1.63 1.19 0.77 0.54 0.29 0.22 0.16 0.33 0.44 1.14 0.77 0.65 0.65 0.60 0.67 0.84 0.90 0.82 0.39 0.61 0.59 0.84 0.28 0.21 0.35 0.32 0.46 0.34 0.23 0.52 0.89 0.18 0.18 0.35 0.40 0.36 0.89 0.50 0.37 0.27 0.26 0.48 0.48 0.12 0.15 0.31 0.26 0.28 0.24 0.75 0.57
0.00 0.01 0.00 0.00 0.00 0.00 0.00 0.00 0.00 0.01 0.01 0.05 0.00 0.01 0.03 0.01 0.02 0.01 0.01 0.01 0.03 0.03 0.02 0.02 0.01 0.01 0.01 0.05 0.14 0.09 0.09 0.07 0.14 0.22 0.15 0.53 1.21 1.14 1.74 1.89 1.47 1.63 1.10 1.85 2.29 2.69 1.74 1.12 0.75 0.43 0.19 0.20 0.24 0.35 0.40 1.10 0.81 0.78 0.39 0.45 0.51 0.90 0.53 0.67 0.79 0.78 0.63 0.64 0.39 0.19 0.22 0.55 0.58 0.43 0.34 0.21 0.40 0.15 0.22 0.38 0.41 0.56 0.67 0.46 0.60 0.68 0.39 0.17 0.27 0.28 0.13 0.11 0.13 0.45 0.45 0.49 0.72
0.01 0.01 0.00 0.00 0.00 0.00 0.00 0.00 0.00 0.02 0.00 0.01 0.00 0.00 0.08 0.02 0.01 0.00 0.01 0.01 0.02 0.02 0.02 0.02 0.03 0.03 0.05 0.11 0.58 0.14 0.06 0.05 0.09 0.14 0.17 0.55 1.05 1.03 1.73 1.07 2.10 1.65 1.94 2.31 2.62 2.66 1.97 1.25 0.72 0.40 0.26 0.22 0.26 0.16 0.39 0.47 0.63 0.88 0.75 0.75 0.54 0.51 0.64 0.61 0.87 0.58 0.38 0.96 0.30 0.36 0.35 0.36 0.30 0.25 0.29 0.24 0.42 0.45 0.31 0.28 0.44 0.63 0.66 0.55 0.35 0.24 0.39 0.49 0.26 0.62 0.43 0.48 0.24 0.15 0.24 0.35 0.42
0.00 0.00 0.00 0.00 0.00 0.00 0.00 0.01 0.01 0.02 0.01 0.04 0.00 0.00 0.01 0.02 0.03 0.02 0.01 0.01 0.01 0.04 0.05 0.07 0.04 0.04 0.05 0.18 0.10 0.07 0.07 0.07 0.11 0.15 0.60 2.31 1.19 0.66 1.29 2.64 2.11 2.63 2.18 2.75 2.78 2.06 2.14 1.49 1.07 0.84 0.77 0.46 0.41 0.53 0.76 0.94 0.67 0.70 0.79 0.74 0.38 0.54 0.56 0.55 0.54 0.61 0.56 0.37 0.39 0.30 0.63 0.69 0.62 0.41 0.44 0.60 0.98 1.02 0.60 0.43 0.55 0.78 0.86 0.86 0.22 0.34 0.43 0.43 0.31 0.15 0.18 0.13 0.12 0.10 0.16 0.30 0.23
0.00 0.00 0.00 0.00 0.00 0.00 0.00 0.02 0.00 0.09 0.00 0.02 0.04 0.08 0.02 0.13 0.02 0.01 0.02 0.00 0.04 0.09 0.09 0.14 0.13 0.12 0.17 0.13 0.12 0.07 0.08 0.09 0.25 0.41 0.55 0.65 0.60 1.00 1.40 1.74 2.87 2.45 2.74 2.73 1.75 1.97 2.13 1.52 1.18 0.60 0.42 0.95 1.10 1.20 1.41 1.36 1.04 1.29 1.04 1.30 0.48 0.46 0.31 0.57 0.53 0.35 0.28 0.24 0.26 0.47 0.60 0.78 0.28 0.37 0.65 1.00 1.31 0.49 0.56 0.76 0.98 1.02 1.06 0.46 0.53 0.51 0.45 0.20 0.28 0.25 0.16 0.12 0.08 0.18 0.24 0.14 0.12
0.00 0.00 0.00 0.00 0.00 0.00 0.01 0.01 0.01 0.05 0.01 0.01 0.01 0.05 0.00 0.08 0.06 0.05 0.04 0.08 0.11 0.08 0.09 0.12 0.09 0.10 0.08 0.26 0.12 0.09 0.10 0.11 0.15 0.19 0.33 0.44 0.94 1.04 1.02 0.88 1.41 1.71 2.15 1.29 1.66 1.81 1.15 1.26 0.93 0.84 0.66 0.88 1.47 1.68 1.24 0.90 1.25 1.68 1.38 0.89 0.78 0.26 0.21 0.18 0.35 0.18 0.11 0.14 0.24 0.30 0.74 0.22 0.47 0.49 0.51 0.82 0.71 0.88 0.69 0.42 0.47 0.74 0.59 0.38 0.61 0.83 0.52 0.22 0.19 0.13 0.19 0.14 0.15 0.25 0.18 0.24 0.17
0.00 0.00 0.01 0.00 0.03 0.02 0.02 0.02 0.02 0.07 0.00 0.02 0.02 0.01 0.03 0.10 0.16 0.11 0.10 0.03 0.07 0.09 0.07 0.10 0.10 0.09 0.10 0.11 0.11 0.09 0.11 0.11 0.20 0.25 0.26 0.35 0.85 0.60 0.36 0.58 1.23 2.17 1.86 1.30 1.34 1.96 1.48 1.27 1.04 0.90 0.80 1.10 1.39 1.39 1.04 1.93 1.75 1.20 1.08 0.67 0.65 0.51 0.17 0.14 0.07 0.08 0.08 0.08 0.14 0.14 0.48 0.98 1.17 0.67 0.52 0.40 0.55 0.42 0.32 0.28 0.24 0.48 0.52 0.53 0.53 0.52 0.49 0.48 0.23 0.15 0.18 0.12 0.10 0.24 0.22 0.18 0.10
0.00 0.00 0.01 0.17 0.18 0.01 0.08 0.03 0.02 0.00 0.01 0.03 0.00 0.00 0.03 0.01 0.07 0.22 0.08 0.06 0.06 0.05 0.07 0.12 0.09 0.07 0.05 0.13 0.08 0.12 0.11 0.14 0.15 0.37 0.33 0.48 0.42 0.39 0.16 0.45 1.16 2.25 1.05 1.32 2.49 2.58 1.51 2.08 1.82 1.13 0.89 0.88 0.90 2.04 2.15 2.15 1.57 1.50 1.15 0.52 0.34 0.24 0.27 0.11 0.11 0.09 0.09 0.12 0.15 0.21 0.35 0.58 0.85 0.58 0.17 0.25 0.49 0.54 0.54 0.36 0.44 0.73 0.53 0.49 0.49 0.35 0.46 0.36 0.17 0.18 0.13 0.11 0.16 0.09 0.12 0.09 0.15
0.00 0.01 0.09 0.05 0.12 0.05 0.02 0.07 0.02 0.06 0.02 0.01 0.02 0.03 0.05 0.31 0.23 0.15 0.13 0.13 0.11 0.07 0.09 0.07 0.06 0.09 0.10 0.11 0.10 0.13 0.14 0.16 0.15 0.34 0.37 0.73 0.58 0.53 0.35 0.52 0.90 1.29 1.25 1.65 2.49 2.52 2.17 2.04 1.61 0.90 0.86 0.81 1.76 2.47 2.33 2.09 1.60 1.84 1.06 0.77 0.29 0.26 0.26 0.21 0.46 0.12 0.15 0.20 0.42 0.51 0.26 0.85 0.57 0.23 0.39 0.37 0.64 0.56 0.65 0.50 0.29 0.23 0.24 0.30 0.25 0.22 0.36 0.22 0.14 0.15 0.15 0.24 0.22 0.07 0.10 0.08 0.11
0.00 0.00 0.01 0.07 0.09 0.05 0.02 0.05 0.08 0.02 0.12 0.05 0.01 0.01 0.04 0.05 1.08 0.08 0.11 0.11 0.02 0.03 0.08 0.03 0.03 0.06 0.10 0.17 0.08 0.12 0.41 0.22 0.14 0.39 0.26 0.74 1.31 0.95 0.99 0.90 1.18 1.44 1.25 2.26 2.39 1.59 2.36 1.50 1.93 1.39 1.60 1.29 1.72 2.34 1.97 2.78 1.76 0.98 0.50 0.49 0.65 0.39 0.44 0.50 0.37 0.23 0.33 0.40 0.42 0.51 0.58 0.53 0.49 0.41 0.64 0.65 0.92 0.54 0.51 0.47 0.27 0.16 0.14 0.10 0.15 0.16 0.29 0.13 0.22 0.13 0.12 0.27 0.23 0.25 0.23 0.23 0.08
0.00 0.01 0.01 0.04 0.04 0.01 0.07 0.22 0.03 0.12 0.06 0.03 0.06 0.01 0.07 0.42 1.14 0.38 0.13 0.05 0.05 0.04 0.02 0.05 0.05 0.05 0.10 0.19 0.26 0.23 0.38 0.52 0.54 0.66 1.18 1.08 1.06 0.90 0.81 1.21 1.63 1.55 2.24 1.65 1.59 1.26 2.00 1.66 2.27 2.59 2.18 2.78 2.71 1.80 2.33 2.72 0.82 0.45 0.54 0.47 0.37 0.33 0.27 0.31 0.30 0.24 0.16 0.22 0.26 0.69 0.30 0.55 1.05 0.58 0.70 0.87 0.43 0.35 0.33 0.30 0.28 0.25 0.22 0.25 0.25 0.16 0.11 0.09 0.13 0.17 0.23 0.24 0.26 0.09 0.12 0.07 0.09
0.07 0.00 0.05 0.01 0.01 0.01 0.01 0.00 0.00 0.00 0.00 0.04 0.01 0.05 0.06 0.13 0.27 0.31 0.44 0.16 0.10 0.05 0.04 0.06 0.07 0.06 0.18 0.28 0.23 0.35 0.47 1.01 1.41 1.60 1.34 0.89 0.84 1.26 1.02 0.92 0.63 0.39 0.76 1.05 1.43 1.60 2.70 2.21 1.22 1.41 1.99 4.00 3.28 3.75 3.21 0.62 0.82 0.27 0.25 0.38 0.30 0.40 0.25 0.18 0.19 0.16 0.20 0.44 0.40 0.38 0.35 0.77 1.41 0.88 0.76 0.92 0.52 0.53 0.41 0.30 0.32 0.23 0.21 0.27 0.29 0.25 0.17 0.10 0.08 0.16 0.25 0.19 0.08 0.06 0.09 0.06 0.04
0.00 0.03 0.04 0.00 0.00 0.03 0.01 0.09 0.07 0.00 0.00 0.05 0.02 0.03 0.16 0.18 0.41 0.27 0.27 0.20 0.20 0.16 0.09 0.06 0.14 0.21 0.29 0.48 0.77 0.89 1.00 1.41 1.18 1.49 1.76 1.37 1.09 0.76 0.51 0.55 0.50 0.53 0.56 1.59 1.58 2.23 1.54 1.22 1.33 3.07 3.95 4.84 4.40 3.32 1.94 1.49 0.72 0.65 0.84 0.75 0.69 0.68 0.44 0.48 0.40 0.18 0.28 0.36 0.48 0.82 0.47 0.67 1.09 1.00 0.81 0.55 0.55 0.37 0.35 0.29 0.29 0.34 0.34 0.27 0.21 0.19 0.20 0.15 0.22 0.18 0.14 0.27 0.14 0.04 0.15 0.13 0.09
0.00 0.06 0.02 0.01 0.08 0.05 0.02 0.00 0.03 0.03 0.04 0.05 0.02 0.17 0.11 0.15 0.59 0.22 0.25 0.17 0.34 0.37 0.26 0.26 0.21 0.38 0.77 0.57 0.78 1.11 1.57 1.62 1.82 1.75 1.49 1.04 0.67 0.74 0.68 0.52 0.82 0.79 1.21 1.06 0.91 1.00 0.81 0.71 1.73 2.34 2.71 2.09 2.70 2.93 2.07 1.39 1.05 1.23 1.00 1.35 0.78 0.47 0.41 0.36 0.39 0.23 0.45 0.56 0.46 0.97 1.09 1.25 0.98 0.76 0.82 0.58 0.43 0.36 0.39 0.35 0.34 0.35 0.29 0.30 0.29 0.31 0.20 0.19 0.16 0.14 0.11 0.46 0.10 0.13 0.07 0.14 0.27
0.00 0.00 0.00 0.00 0.00 0.13 0.05 0.01 0.03 0.01 0.17 0.02 0.09 0.06 0.20 0.27 0.48 0.17 0.19 0.18 0.24 0.18 0.23 0.38 0.69 0.63 0.92 1.04 1.08 1.16 1.12 1.06 1.12 1.01 1.82 1.59 0.96 0.75 0.69 0.67 1.01 0.80 1.07 0.80 0.75 0.84 1.08 0.84 1.34 2.55 2.94 2.19 3.07 2.38 1.92 1.93 1.58 1.01 0.87 0.57 0.54 0.43 0.19 0.57 0.69 0.64 0.15 0.61 0.58 0.88 0.82 0.84 0.82 0.57 0.50 0.47 0.39 0.40 0.45 0.34 0.30 0.22 0.36 0.21 0.20 0.09 0.27 0.12 0.10 0.16 0.15 0.15 0.16 0.11 0.11 0.18 0.22
0.00 0.00 0.00 0.00 0.01 0.04 0.00 0.06 0.02 0.07 0.08 0.16 0.13 0.16 0.46 0.28 0.05 0.15 0.23 0.16 0.32 0.28 0.24 0.25 0.51 0.84 0.53 0.84 1.16 1.22 1.12 1.02 0.96 1.24 1.67 1.71 0.95 0.54 0.67 0.78 0.70 0.60 0.83 0.59 0.95 0.69 0.58 0.36 0.96 1.83 2.22 1.60 1.74 2.71 1.70 1.47 1.16 0.94 0.38 0.35 0.26 0.28 0.18 0.14 0.68 0.95 1.06 1.55 1.22 0.76 0.65 0.60 0.64 0.54 0.46 0.45 0.38 0.37 0.40 0.43 0.46 0.36 0.40 0.39 0.28 0.21 0.17 0.18 0.09 0.13 0.07 0.05 0.09 0.10 0.16 0.23 0.24
0.01 0.00 0.03 0.01 0.05 0.11 0.09 0.05 0.00 0.08 0.04 0.12 0.12 0.19 0.31 0.56 0.16 0.14 0.46 0.63 0.36 0.54 0.36 0.39 0.74 0.25 0.50 0.60 0.85 0.54 0.69 0.84 1.29 1.49 1.17 1.52 1.72 2.17 1.66 1.03 1.39 1.87 1.95 1.51 0.80 0.35 0.32 0.37 0.80 0.84 0.52 0.71 0.51 0.58 0.83 0.96 0.91 0.90 0.23 0.42 0.56 0.41 0.57 0.27 0.48 1.11 1.69 0.84 0.30 0.37 0.37 0.40 0.40 0.44 0.34 0.41 0.40 0.32 0.27 0.24 0.31 0.20 0.11 0.10 0.17 0.11 0.13 0.14 0.12 0.04 0.10 0.04 0.12 0.02 0.19 0.48 0.05